Terug naar catalogus

STARLINK-32312

ActiefCommunicatieVLEO
NORAD 61711·PAYLOAD·🇺🇸 United States

Gelanceerd Oct 30, 2024 vanaf Cape Canaveral Space Force Station

Loading…

Volgende Passages (komende 24 uur)

TLE

VersSource: CelesTrak SupGP

Epoch: Sep 15, 2026, 03:26 UTC

1 61711C 24196E   26258.14354167  .00016219  00000+0  47906-3 0  2587
2 61711  53.1572 298.3976 0001148  90.9938 296.6116 15.34391321    11

Volg STARLINK-32312 in realtime met AllMySat

Download on the App Store